Regional Weather Roundup
Issued by NWS New Orleans/Baton Rouge, LA

Home | Current Version | Previous Version | Text Only | Print | Product List | Glossary On
Versions: 1 2 3 4 5 6 7 8 9 10 11 12 13 14 15 16 17 18 19 20 21 22 23 24 25 26 27
000
ASUS44 KLIX 021913
RWRLIX
NEW ORLEANS REGIONAL WEATHER ROUNDUP
NATIONAL WEATHER SERVICE NEW ORLEANS LA
100 PM CST FRI DEC 02 2016

NOTE: "FAIR" INDICATES FEW OR NO CLOUDS BELOW 12,000 FEET WITH NO
      SIGNIFICANT WEATHER AND/OR OBSTRUCTIONS TO VISIBILITY.
      SKY/WX - SKY CONDITION AND SIGNIFICANT WEATHER.
      TMP - AIR TEMPERATURE.     DP    - DEWPOINT TEMPERATURE.
      RH  - RELATIVE HUMIDITY.   PRES  - PRESSURE.
      HI  - HEAT INDEX.          WCI   - WIND CHILL INDEX.

*  THESE STATIONS ARE NOT NWS OR FAA STATIONS AND ARE NOT UNDER
   NWS QUALITY CONTROL.

LAZ038-040-048-061>063-065>067-069-022000-
SOUTHEAST LOUISIANA

CITY           SKY/WX    TMP DP  RH WIND       PRES   REMARKS
N.O. AUDUBON   NOT AVBL
N.O. INTL ARPT PTSUNNY   64  47  53 E13       30.18F
N.O. LAKEFRONT PTSUNNY   63  46  54 E14       30.19F
N.O. DOWNTOWN*   N/A     64  43  46 VRB7      30.19F
RESERVE*       MOCLDY    67  45  44 E15       30.16F
SLIDELL        MOSUNNY   65  33  30 E8        30.19F
BATON ROUGE    CLOUDY    66  32  28 E14       30.15F
BOOTHVILLE     CLOUDY    63  51  65 E15G22    30.16F
BELLE CHASSE   CLOUDY    66  43  43 E12       30.17F
BOGALUSA*      MOCLDY    67  29  23 E6        30.22R
GALLIANO*      PTCLDY    66  48  50 E13G18    30.15F
NEW ROADS*       N/A     64  32  30 E10G17    30.16F
GONZALES*      MOCLDY    64  42  44 E8G16     30.16F
HAMMOND*       MOSUNNY   68  27  21 E10       30.18F
HOUMA*         SUNNY     66  48  52 E16       30.15F
PORT FOURCHON* PTCLDY    68  54  60 E17       30.13F

$$

MSZ070-080>082-022000-
SOUTHERN MISSISSIPPI

CITY           SKY/WX    TMP DP  RH WIND       PRES   REMARKS
MCCOMB         PTSUNNY   62  27  26 SE7       30.20S
GULFPORT       PTSUNNY   66  32  28 E13G22    30.18F
BILOXI         PTSUNNY   66  32  27 E12       30.18F
PASCAGOULA     MOSUNNY   64  28  25 NE9       30.19F
STENNIS ARPT*  SUNNY     66  23  19 NE8       30.20R

$$

COASTAL OBSERVATIONS
LAKE AND NEARSHORE STATIONS

STATION/POSITION TIME  TEMP    WIND        PRES    WAVE
                       AIR SEA DIR/SP/G            HT/PER
                 (UTC) (F)     (DEG/KT/KT) (MB)    (FT/S)
PASCAGOULA       1836   64      70/ 12/ 15 1022.0
WAVELAND YACHT   1836   61 62  110/  9/ 12 1022.3
GRAND ISLE       1836   66 65   90/ 12/ 16 1020.8
SOUTHWEST PASS   1848           90/ 19/ 23   N/A
NEW CANAL        1836   62 63   80/  9/ 15 1021.4
SHELL BEACH      1836   62 65   80/ 17/ 20 1022.0

OFFSHORE STATIONS

STATION/POSITION TIME  TEMP    WIND        PRES    WAVE
                       AIR SEA DIR/SP/G            HT/PER
                 (UTC) (F)     (DEG/KT/KT) (MB)    (FT/S)
64 S DAUPHIN ISL 1850   68 76   80/ 16/ 21 1020.9    5/ 6

$$





USA.gov is the U.S. government's official web portal to all federal, state and local government web resources and services.